| time (UTC) | temp C | wind direction | speed KPH | gust KPH | rain 1hr cm | rain 24hr cm | rain mn cm | humidity % | barometer mb |
| 20260504174551 | 23 | 96 | 1.6 | 11.3 | 0.00 | 0.00 | 0.00 | 47 | 1013.0 |
| 20260504173048 | 22 | 111 | 4.8 | 14.5 | 0.00 | 0.00 | 0.00 | 48 | 1013.3 |
| 20260504171546 | 21 | 176 | 6.4 | 12.9 | 0.00 | 0.00 | 0.00 | 45 | 1013.4 |
| 20260504081516 | 6 | 307 | 0.0 | 0.0 | 0.00 | 0.00 | 0.00 | 85 | 1016.6 |
| 20260504060107 | 3 | 330 | 0.0 | 0.0 | 0.00 | 0.00 | 0.00 | 89 | 1017.0 |
| 20260504044552 | 3 | 330 | 0.0 | 0.0 | 0.00 | 0.00 | 0.00 | 87 | 1017.4 |
| 20260504043050 | 3 | 330 | 0.0 | 1.6 | 0.00 | 0.00 | 0.00 | 87 | 1017.4 |
| 20260504041547 | 3 | 330 | 0.0 | 0.0 | 0.00 | 0.00 | 0.00 | 86 | 1017.3 |
| 20260504040047 | 3 | 330 | 0.0 | 0.0 | 0.00 | 0.00 | 0.00 | 86 | 1017.3 |
| 20260504034542 | 4 | 330 | 0.0 | 0.0 | 0.00 | 0.00 | 0.00 | 85 | 1017.1 |
| 20260504033050 | 4 | 330 | 0.0 | 0.0 | 0.00 | 0.00 | 0.00 | 84 | 1017.0 |
| 20260504031542 | 4 | 330 | 0.0 | 0.0 | 0.00 | 0.00 | 0.00 | 84 | 1016.8 |
| 20260504030039 | 5 | 330 | 0.0 | 0.0 | 0.00 | 0.00 | 0.00 | 82 | 1016.8 |
| 20260504024549 | 5 | 330 | 0.0 | 0.0 | 0.00 | 0.00 | 0.00 | 82 | 1016.7 |
| 20260504023037 | 6 | 330 | 0.0 | 0.0 | 0.00 | 0.00 | 0.00 | 76 | 1016.7 |
| 20260504021547 | 6 | 330 | 0.0 | 0.0 | 0.00 | 0.00 | 0.00 | 73 | 1016.5 |
| 20260504020036 | 6 | 330 | 0.0 | 1.6 | 0.00 | 0.00 | 0.00 | 79 | 1016.4 |
| 20260504014536 | 7 | 330 | 0.0 | 1.6 | 0.00 | 0.00 | 0.00 | 66 | 1016.4 |
| 20260504013044 | 7 | 305 | 0.0 | 3.2 | 0.00 | 0.00 | 0.00 | 74 | 1016.4 |
| 20260504011534 | 8 | 306 | 0.0 | 1.6 | 0.00 | 0.00 | 0.00 | 69 | 1016.2 |
| 20260504010033 | 10 | 258 | 0.0 | 0.0 | 0.00 | 0.00 | 0.00 | 56 | 1016.1 |
| 20260504004542 | 11 | 258 | 0.0 | 0.0 | 0.00 | 0.00 | 0.00 | 53 | 1016.0 |
| 20260504003033 | 12 | 258 | 0.0 | 0.0 | 0.00 | 0.00 | 0.00 | 46 | 1015.9 |
| 20260504001534 | 12 | 259 | 0.0 | 1.6 | 0.00 | 0.00 | 0.00 | 44 | 1015.9 |
| 20260504000032 | 13 | 291 | 0.0 | 1.6 | 0.00 | 0.00 | 0.00 | 42 | 1015.9 |
| 20260503234531 | 14 | 314 | 0.0 | 0.0 | 0.00 | 0.00 | 0.00 | 40 | 1015.7 |
| 20260503233033 | 14 | 309 | 1.6 | 4.8 | 0.00 | 0.00 | 0.00 | 43 | 1015.7 |
| 20260503231530 | 15 | 316 | 4.8 | 6.4 | 0.00 | 0.00 | 0.00 | 40 | 1015.6 |
| 20260503230030 | 15 | 333 | 8.0 | 11.3 | 0.00 | 0.00 | 0.00 | 41 | 1015.5 |
| 20260503224529 | 16 | 220 | 1.6 | 9.7 | 0.00 | 0.00 | 0.00 | 37 | 1015.4 |
| 20260503223029 | 16 | 320 | 3.2 | 9.7 | 0.00 | 0.00 | 0.00 | 38 | 1015.4 |
| 20260503221528 | 16 | 330 | 6.4 | 14.5 | 0.00 | 0.00 | 0.00 | 36 | 1015.5 |
| 20260503220030 | 16 | 318 | 4.8 | 17.7 | 0.00 | 0.00 | 0.00 | 36 | 1015.5 |
| 20260503214526 | 16 | 321 | 9.7 | 16.1 | 0.00 | 0.00 | 0.00 | 37 | 1015.6 |
| 20260503213029 | 16 | 313 | 8.0 | 14.5 | 0.00 | 0.00 | 0.00 | 34 | 1015.6 |
| 20260503211535 | 16 | 316 | 4.8 | 14.5 | 0.00 | 0.00 | 0.00 | 36 | 1015.7 |
| 20260503210025 | 16 | 314 | 6.4 | 16.1 | 0.00 | 0.00 | 0.00 | 36 | 1015.6 |
| 20260503204524 | 16 | 261 | 3.2 | 12.9 | 0.00 | 0.00 | 0.00 | 35 | 1015.6 |
| 20260503203023 | 16 | 325 | 3.2 | 12.9 | 0.00 | 0.00 | 0.00 | 39 | 1015.8 |
| 20260503201521 | 16 | 317 | 8.0 | 16.1 | 0.00 | 0.00 | 0.00 | 35 | 1015.7 |
| 20260503200019 | 16 | 163 | 4.8 | 17.7 | 0.00 | 0.00 | 0.00 | 37 | 1016.1 |
| 20260503194517 | 16 | 357 | 4.8 | 14.5 | 0.00 | 0.00 | 0.00 | 38 | 1016.3 |
| 20260503193031 | 15 | 346 | 8.0 | 17.7 | 0.00 | 0.00 | 0.00 | 36 | 1016.5 |
| 20260503191515 | 15 | 333 | 4.8 | 17.7 | 0.00 | 0.00 | 0.00 | 36 | 1016.9 |
| 20260503190024 | 15 | 326 | 4.8 | 19.3 | 0.00 | 0.00 | 0.00 | 40 | 1017.0 |
| 20260503184516 | 15 | 321 | 14.5 | 22.5 | 0.00 | 0.00 | 0.00 | 38 | 1017.2 |
| 20260503183010 | 15 | 103 | 1.6 | 16.1 | 0.00 | 0.00 | 0.00 | 43 | 1017.3 |
| 20260503181508 | 14 | 329 | 3.2 | 14.5 | 0.00 | 0.00 | 0.00 | 41 | 1017.4 |
| 20260503180008 | 14 | 322 | 4.8 | 16.1 | 0.00 | 0.00 | 0.00 | 43 | 1017.5 |